Regional Weather Roundup
Issued by NWS

Home | Current Version | Previous Version | Text Only | Print | Product List | Glossary Off
Versions: 1 2 3 4 5 6 7 8 9 10 11 12 13 14 15 16 17 18 19 20 21 22 23 24 25 26 27 28 29 30 31 32 33 34 35 36 37 38 39 40 41 42 43 44 45 46 47 48 49 50

000
ASUS43 KLMK 220902
RWRKY
KENTUCKY REGIONAL WEATHER ROUNDUP
NATIONAL WEATHER SERVICE LOUISVILLE KY
400 AM EST MON DEC 22 2014

NOTE "FAIR" INDICATES FEW OR NO CLOUDS BELOW 12,000 FEET
WITH NO SIGNIFICANT WEATHER AND/OR OBSTRUCTIONS TO VISIBILITY.

KYZ001>023-026-027-061>063-070>075-221000-
WESTERN AND SOUTH CENTRAL KENTUCKY

CITY           SKY/WX    TMP DP  RH WIND       PRES   REMARKS
PADUCAH        CLOUDY    41  34  76 E5        29.91F
HENDERSON      CLOUDY    36  28  75 E5        29.95F WCI  32
OWENSBORO      CLOUDY    39  32  76 SE5       29.97F
HOPKINSVILLE   CLOUDY    42  38  84 SE5       29.94F
BOWLING GREEN  CLOUDY    35  28  75 CALM      29.98F
GLASGOW        NOT AVBL
$$

KYZ024-025-028>034-038-045-046-053-221000-
NORTH CENTRAL KENTUCKY

CITY           SKY/WX    TMP DP  RH WIND       PRES   REMARKS
LOUISVILLE/SDF CLOUDY    37  29  72 E3        30.00F
LOUISVILLE/LOU CLOUDY    37  28  70 CALM      30.01F
FORT KNOX      MOCLDY    32  28  83 E5        29.98F WCI  27
$$

KYZ035>037-039>044-047>052-055>060-089>105-221000-
NORTHEAST KENTUCKY

CITY           SKY/WX    TMP DP  RH WIND       PRES   REMARKS
LEXINGTON      CLOUDY    37  28  70 SE8       30.01F WCI  31
COVINGTON      CLOUDY    33  25  72 SE7       30.03F WCI  27
FRANKFORT      CLOUDY    33  28  81 CALM      30.01F
$$

KYZ054-064>069-076>088-106>120-221000-
SOUTHEAST KENTUCKY

CITY           SKY/WX    TMP DP  RH WIND       PRES   REMARKS
JACKSON        PTCLDY    38  28  67 SE5       30.02F WCI  34
LONDON         CLOUDY    38  30  73 CALM      30.02S
SOMERSET       NOT AVBL
MIDDLESBORO    CLOUDY    44  37  75 CALM      30.05F
MONTICELLO     CLOUDY    41  37  85 CALM      30.03F
$$



USA.gov is the U.S. government's official web portal to all federal, state and local government web resources and services.